Header for Extended Forecast Station List Page

Search by: ID | Name | Date | Parm | Value | Avg | % Avg
Sort by: ID | Name | Date | Parm | Value | Avg | % Avg

Enter search or view all records.

Click on id for station plot
#IDNameDateParmValueAvg% Avg
0LYDM8KOOTENAI-LIBBY DAM08-08-2022INFLOW (KAF)14331295111
1LEOI1KOOTENAI-AT LEONIA08-08-2022DISCHARGE (KAF)25942333111
2BFEI1KOOTENAI-AT BONNERS FERRY08-08-2022STAGE (FT)MMM
3FCFM8NF FLATHEAD-NEAR COLUMBIA FALLS08-08-2022DISCHARGE (KAF)257236109
4WGCM8MF FLATHEAD-NEAR WEST GLACIER08-08-2022DISCHARGE (KAF)207192108
5HHWM8SF FLATHEAD-HUNGRY HORSE DAM08-08-2022INFLOW (KAF)210207102
6CFMM8FLATHEAD-AT COLUMBIA FALLS08-08-2022DISCHARGE (KAF)10371025101
7DLGM8CLARK FORK-AT DEER LODGE08-08-2022DISCHARGE (KAF)4841117
8DRMM8CLARK FORK-NR DRUMMOND08-08-2022DISCHARGE (KAF)115110105
9RCCM8ROCK CREEK-NEAR CLINTON08-08-2022DISCHARGE (KAF)5957102
10BONM8BLACKFOOT-NEAR BONNER08-08-2022DISCHARGE (KAF)12514785
11ABOM8CLARK FORK-ABOVE MISSOULA08-08-2022DISCHARGE (KAF)31333095
12BITM8BITTERROOT-NEAR MISSOULA08-08-2022DISCHARGE (KAF)17620486
13BELM8CLARK FORK-BELOW MISSOULA08-08-2022DISCHARGE (KAF)49054490
14STRM8ST. REGIS-NEAR ST. REGIS08-08-2022DISCHARGE (KAF)272799
15SRGM8CLARK FORK-AT ST REGIS08-08-2022DISCHARGE (KAF)64070291
16KERM8FLATHEAD-SELI’Š KSANKA QLISPE’ DAM08-08-2022INFLOW (KAF)1179125994
17NOXM8CLARK FORK-NOXON RAPIDS DAM08-08-2022INFLOW (KAF)27112554106
18CABI1CLARK FORK-CABINET GORGE DAM08-08-2022INFLOW (KAF)29842812106
19PRTI1PRIEST-NEAR PRIEST RIVER08-08-2022DISCHARGE (KAF)194185105
20ALFW1PEND OREILLE-ALBENI FALLS DAM08-08-2022INFLOW (KAF)32252969109
21HOPI1PEND OREILLE-PEND OREILLE LAKE NR HOPE08-08-2022LAKE ELEVATION (FT)MMM
22COEI1COEUR D ALENE-COEUR D ALENE LAKE08-08-2022INFLOW (KAF)23828185
23SPOW1SPOKANE-AT SPOKANE08-08-2022DISCHARGE (KAF)46347598
24LLKW1SPOKANE-AT LONGLAKE08-08-2022INFLOW (KAF)628622101
25SATI1ST MARIES-NEAR SANTA08-08-2022DISCHARGE (KAF)151785
26SJMI1ST JOE-AT ST MARIES08-08-2022STAGE (FT)MMM
27CIBW1COLUMBIA-AT INTL BOUNDARY08-08-2022DISCHARGE (KAF)192701955799
28LAUW1KETTLE-AT LAURIER08-08-2022DISCHARGE (KAF)10010397
29GCDW1COLUMBIA-GRAND COULEE DAM08-08-2022INFLOW (KAF)2006319088105
30CHJW1COLUMBIA-CHIEF JOSEPH DAM08-08-2022INFLOW (KAF)1947219498100
31TONW1OKANOGAN-NEAR TONASKET08-08-2022DISCHARGE (KAF)334265126
32PATW1METHOW-NEAR PATEROS08-08-2022DISCHARGE (KAF)115106109
33WELW1COLUMBIA-WELLS DAM08-08-2022INFLOW (KAF)199402004999
34CHDW1CHELAN-LAKE CHELAN DAM08-08-2022INFLOW (KAF)234178131
35RRHW1COLUMBIA-ROCKY REACH DAM08-08-2022INFLOW (KAF)202332044299
36ARDW1ENTIAT-NEAR ARDENVOIR08-08-2022DISCHARGE (KAF)2826108
37PESW1WENATCHEE-AT PESHASTIN08-08-2022DISCHARGE (KAF)292242121
38WANW1COLUMBIA-WANAPUM DAM08-08-2022INFLOW (KAF)205372081299
39PRWW1COLUMBIA-PRIEST RAPIDS DAM08-08-2022INFLOW (KAF)205392090398
40KEDW1YAKIMA-KEECHELUS LAKE08-08-2022INFLOW (KAF)4936135
41KADW1KACHESS-KACHESS DAM08-08-2022INFLOW (KAF)3532108
42EASW1YAKIMA-AT EASTON08-08-2022DISCHARGE (KAF)556981
43CLUW1CLE ELUM-CLE ELUM LAKE08-08-2022INFLOW (KAF)10482126
44TNAW1TEANAWAY-BELOW FORKS08-08-2022DISCHARGE (KAF)1514110
45UMTW1YAKIMA-AT UMTANUM08-08-2022DISCHARGE (KAF)451419108
46BUDW1BUMPING-BUMPING LAKE DAM08-08-2022INFLOW (KAF)2925118
47CLFW1NACHES-NEAR CLIFFDEL08-08-2022DISCHARGE (KAF)8383100
48RILW1TIETON-RIMROCK LAKE NEAR RIMROCK08-08-2022INFLOW (KAF)7162114
49NACW1NACHES-NEAR NACHES08-08-2022DISCHARGE (KAF)5719929
50PARW1YAKIMA-NEAR PARKER08-08-2022DISCHARGE (KAF)18624277
51KIOW1YAKIMA-AT KIONA08-08-2022DISCHARGE (KAF)45249791
52IPDI1HENRYS FORK-ISLAND PARK DAM08-08-2022INFLOW (KAF)136120113
53CHEI1FALL RIVER-NEAR CHESTER08-08-2022DISCHARGE (KAF)10410996
54ANTI1HENRYS FORK-AT ST. ANTHONY08-08-2022DISCHARGE (KAF)30431796
55TEAI1TETON-NEAR ST. ANTHONY08-08-2022DISCHARGE (KAF)12913397
56REXI1HENRYS FORK-AT REXBURG08-08-2022DISCHARGE (KAF)382341112
57JLKW4SNAKE-JACKSON LAKE AT DAM08-08-2022INFLOW (KAF)134120112
58JKSW4SNAKE-NEAR JACKSON08-08-2022DISCHARGE (KAF)54262487
59ALPW4SNAKE-NEAR ALPINE08-08-2022DISCHARGE (KAF)64673588
60PLDI1SF SNAKE-PALISADES DAM08-08-2022INFLOW (KAF)897100290
61HEII1SNAKE-NEAR HEISE08-08-2022DISCHARGE (KAF)1215126496
62RIDI1WILLOW CREEK-RIRIE DAM08-08-2022INFLOW (KAF)3748
63SIFI1SNAKE-AB EAGLE ROCK NR IDAHO FALLS08-08-2022DISCHARGE (KAF)1039993105
64SHYI1SNAKE-NEAR SHELLEY08-08-2022DISCHARGE (KAF)962963100
65SNAI1SNAKE-AT BLACKFOOT08-08-2022DISCHARGE (KAF)680627109
66BFTI1SNAKE-NEAR BLACKFOOT08-08-2022DISCHARGE (KAF)690610113
67PIHI1PORTNEUF-AT POCATELLO08-08-2022DISCHARGE (KAF)3030101
68AFRI1SNAKE-AMERICAN FALLS RESERVOIR08-08-2022INFLOW (KAF)13291176113
69MILI1SNAKE-AT MILNER08-08-2022DISCHARGE (KAF)364091
70HOTI1BRUNEAU-NEAR HOT SPRINGS08-08-2022DISCHARGE (KAF)151691
71SWAI1SNAKE-BELOW SWAN FALLS08-08-2022DISCHARGE (KAF)1717174299
72HWRI1BIG LOST-AT HOWELL RANCH NEAR CHILLY08-08-2022DISCHARGE (KAF)232686
73MACI1BIG LOST-MACKAY RESERVOIR NEAR MACKAY08-08-2022INFLOW (KAF)344477
74HALI1BIG WOOD-AT HAILEY08-08-2022DISCHARGE (KAF)374287
75MAGI1BIG WOOD-MAGIC DAM08-08-2022INFLOW (KAF)152463
76LWRI1LITTLE WOOD-LITTLE WOOD DAM08-08-2022INFLOW (KAF)1211109
77OWYO3OWYHEE-OWYHEE DAM08-08-2022INFLOW (KAF)596295
78ARAI1SF BOISE-ANDERSON RANCH DAM08-08-2022INFLOW (KAF)7965122
79LUCI1BOISE-LUCKY PEAK DAM08-08-2022INFLOW (KAF)21422396
80BIGI1BOISE-AT GLENWOOD BRIDGE08-08-2022DISCHARGE (KAF)9611882
81PARI1BOISE-NEAR PARMA08-08-2022DISCHARGE (KAF)18320490
82WRMO3MALHEUR-WARM SPRINGS DAM08-08-2022INFLOW (KAF)1310131
83BERO3MALHEUR-AGENCY VALLEY DAM08-08-2022INFLOW (KAF)81263
84BULO3BULLY CREEK-BULLY CREEK DAM08-08-2022INFLOW (KAF)10309
85CSDI1NF PAYETTE-CASCADE DAM08-08-2022INFLOW (KAF)6866103
86DEDI1DEADWOOD-NEAR LOWMAN08-08-2022INFLOW (KAF)151787
87EMMI1PAYETTE-NEAR EMMETT08-08-2022DISCHARGE (KAF)294252117
88WSRI1WEISER-NEAR WEISER08-08-2022DISCHARGE (KAF)4342103
89WEII1SNAKE-AT WEISER08-08-2022DISCHARGE (KAF)25642552100
90BRNI1SNAKE-BROWNLEE DAM08-08-2022INFLOW (KAF)27432623105
91WHBI1SALMON-AT WHITEBIRD08-08-2022DISCHARGE (KAF)1031105498
92TRYO3GRANDE RONDE-TROY08-08-2022DISCHARGE (KAF)15217885
93ANAW1SNAKE-NEAR ANATONE08-08-2022DISCHARGE (KAF)38483848100
94ORFI1CLEARWATER-AT OROFINO08-08-2022DISCHARGE (KAF)45046896
95DWRI1NF CLEARWATER-DWORSHAK DAM08-08-2022INFLOW (KAF)30234887
96SPDI1CLEARWATER-AT SPALDING08-08-2022DISCHARGE (KAF)15531403111
97LGDW1SNAKE-LOWER GRANITE DAM08-08-2022INFLOW (KAF)53925324101
98LGSW1SNAKE-LITTLE GOOSE DAM08-08-2022INFLOW (KAF)53925336101
99LMNW1SNAKE-LOWER MONUMENTAL DAM08-08-2022INFLOW (KAF)54075338101
100IHDW1SNAKE-ICE HARBOR DAM08-08-2022INFLOW (KAF)54075350101
101TCHW1WALLA WALLA-NEAR TOUCHET08-08-2022DISCHARGE (KAF)3722166
102MCDW1COLUMBIA-MCNARY DAM08-08-2022INFLOW (KAF)265052665899
103GIBO3UMATILLA-NEAR GIBBON08-08-2022DISCHARGE (KAF)1514112
104PDTO3UMATILLA-AT PENDLETON08-08-2022DISCHARGE (KAF)2319119
105MYKO3MCKAY CREEK-NEAR PILOT ROCK08-08-2022DISCHARGE (KAF)42203
106UMAO3UMATILLA-NEAR UMATILLA08-08-2022DISCHARGE (KAF)7543174
107MONO3NF JOHN DAY-AT MONUMENT08-08-2022DISCHARGE (KAF)333399
108SERO3JOHN DAY-AT SERVICE CK08-08-2022DISCHARGE (KAF)6363101
109JDAO3COLUMBIA-JOHN DAY DAM08-08-2022INFLOW (KAF)2710026923101
110MODO3DESCHUTES-AT MOODY NR BIGGS08-08-2022DISCHARGE (KAF)1130113999
111TDAO3COLUMBIA-THE DALLES DAM08-08-2022INFLOW (KAF)2781327539101
112PITW1KLICKITAT-NEAR PITT08-08-2022DISCHARGE (KAF)236186127
113HODO3HOOD-NEAR TUCKER BRIDGE08-08-2022DISCHARGE (KAF)139109127
114UNDW1WHITE SALMON-NEAR UNDERWOOD08-08-2022DISCHARGE (KAF)181154118
115BONO3COLUMBIA-BONNEVILLE DAM08-08-2022INFLOW (KAF)2835528404100